Tracking 20083 objects as of 12-Dec-2019
HD Live streaming from Space Station
objects crossing your sky now

COSMOS 2251 DEB

Track COSMOS 2251 DEB now!
10-day predictions


NORAD ID: 35782
Int'l Code: 1993-036ASC
Perigee: 580.3 km
Apogee: 613.9 km
Inclination: 74.0 °
Period: 96.5 minutes
Semi major axis: 6968 km
RCS: 0.0131 m2 (small)
Launch date: June 16, 1993
Source: Commonwealth of Independent States (former USSR) (CIS)
Launch site: PLESETSK MISSILE AND SPACE COMPLEX (PKMTR)

Note: This is SATELLITE DEBRIS
aabbcc
Your satellite tracking list
Your tracking list is empty




NASA's NSSDC Master Catalog

Two Line Element Set (TLE):
1 35782U 93036ASC 19345.50039239  .00002766  00000-0  27140-3 0  9997
2 35782  73.9706 263.2374 0024128 298.6024  61.2731 14.92548566560779
Source of the keplerian elements: AFSPC